User: anonymous   Login
Location: Unspecified
(0.0000°N, 0.0000°E)
Time: 16:01:24
(UTC+00:00)
Language:

Aussat K1 - Orbit

View from above orbital plane
View from above orbital plane
View from above satellite
View from above satellite

Ground track
Ground track

The orbit data is extracted from the following two-line orbital elements,

1 15993U 85076B   18294.29776059 +.00000071 +00000-0 +00000-0 0  9990
2 15993 015.2740 002.1900 0006883 301.8764 063.9795 00.99758158091702
Epoch (UTC): 21 October 2018 07:08:46
Eccentricity: 0.0006883
inclination: 15.2740°
perigee height: 35902 km
apogee height: 35960 km
right ascension of ascending node: 2.1900°
argument of perigee: 301.8764°
revolutions per day: 0.99758158
mean anomaly at epoch: 63.9795°
orbit number at epoch: 9170

The dashed part of the orbit path shows where the satellite is in the earth's shadow,  

DLR